Regional Weather Roundup
Issued by NWS

Home | Current Version | Previous Version | Text Only | Print | Product List | Glossary Off
Versions: 1 2 3 4 5 6 7 8 9 10 11 12 13 14 15 16 17 18 19 20 21 22 23 24 25 26 27 28 29 30 31 32 33 34 35 36 37 38 39 40 41 42 43 44 45 46 47 48 49 50

000
ASUS43 KIND 300059
RWRIN

WEATHER ROUNDUP FOR INDIANA
NATIONAL WEATHER SERVICE INDIANAPOLIS IN
900 PM EDT WED MAR 29 2017

NOTE: "FAIR" INDICATES FEW OR NO CLOUDS BELOW 12,000 FEET WITH NO
SIGNIFICANT WEATHER AND/OR OBSTRUCTIONS TO VISIBILITY.

* - STATION DOES NOT REPORT WEATHER SUCH AS PRECIPITATION OR FOG.

+ - STATION NOT QUALITY CONTROLLED BY THE NATIONAL WEATHER SERVICE.
    USE DATA WITH CAUTION...ESPECIALLY DEWPOINT AND RELATIVE
    HUMIDITY OBSERVATIONS.

INZ001>003-010>013-019-020-300200-
NORTHWEST INDIANA

CITY           SKY/WX    TMP DP  RH WIND       PRES   REMARKS
GARY /AIRPORT/ LGT RAIN  50  41  71 E14       30.08R
MONTICELLO +   CLOUDY    53  38  58 E14G20    30.01F

$$

LMZ046-743>745-300200-
SOUTHERN LAKE MICHIGAN

STATION/POSITION TIME  TEMP    WIND        PRES    WAVE
                       AIR SEA DIR/SP/G            HT
                 (UTC) (F)     (DEG/KT/KT) (MB)    (FT)
BURNS HARBOR     0040   49      80/  9/ 16 1019.0R
MICHIGAN CITY    0030   51      90/ 12/ 15   N/A

$$

INZ004-005-014>016-021>024-300200-
NORTH CENTRAL INDIANA

CITY           SKY/WX    TMP DP  RH WIND       PRES   REMARKS
ELKHART        LGT RAIN  48  36  61 E14       30.08S
GOSHEN         CLOUDY    49  30  48 E15       30.08F
SOUTH BEND     LGT RAIN  49  34  56 E16       30.11R

$$

INZ006>009-017-018-025>027-300200-
NORTHEAST INDIANA

CITY           SKY/WX    TMP DP  RH WIND       PRES   REMARKS
ANGOLA *+      CLOUDY    46  34  61 SE12      30.12F
FORT WAYNE     CLOUDY    48  31  51 E22G30    30.10F
KENDALLVILLE + MOCLDY    48  31  53 E9G16     30.11F

$$

INZ028-029-035-036-043>045-051>053-300200-
WEST CENTRAL INDIANA

CITY           SKY/WX    TMP DP  RH WIND       PRES   REMARKS
CRAWFORDSVL +  MOCLDY    53  44  69 E14       29.97F
GREENCASTLE +  MOCLDY    55  43  62 E18G24    29.98F
LAFAYETTE      CLOUDY    54  41  61 E20G32    29.98F
TERRE HAUTE    CLOUDY    57  45  64 E14G23    29.95F

$$

INZ030>032-037>040-046>048-054>057-064-065-300200-
CENTRAL INDIANA

CITY           SKY/WX    TMP DP  RH WIND       PRES   REMARKS
COLUMBUS       MOCLDY    54  48  82 E13       30.04F
INDIANAPOLIS   CLOUDY    57  43  59 E16       30.00F
-EAGLE CREEK   PTCLDY    58  41  53 E14G21    30.00F
KOKOMO +       CLOUDY    52  40  63 E20       30.04F
SHELBYVILLE    CLOUDY    56  44  64 E13       30.03F

$$

INZ033-034-041-042-049-050-058-059-300200-
EAST CENTRAL INDIANA

CITY           SKY/WX    TMP DP  RH WIND       PRES   REMARKS
MUNCIE         MOCLDY    54  41  61 E18G25    30.07F
RICHMOND +     CLOUDY    52  41  66 E9        30.09R

$$

INZ060-061-067>069-081>083-085>088-300200-
SOUTHWEST INDIANA

CITY           SKY/WX    TMP DP  RH WIND       PRES   REMARKS
EVANSVILLE     PTCLDY    64  52  64 E9        29.91F
HUNTINGBURG *+ PTCLDY    62  51  67 E13       29.94S

$$

INZ062-063-066-070>080-084-089>092-300200-
SOUTH CENTRAL AND SOUTHEAST INDIANA

CITY           SKY/WX    TMP DP  RH WIND       PRES   REMARKS
BLOOMINGTON    PTCLDY    57  45  64 E13       29.98F
MADISON *+     CLOUDY    55  45  67 E9        30.06S
SEYMOUR +      CLOUDY    59  46  63 E10G16    30.02F

$$




USA.gov is the U.S. government's official web portal to all federal, state and local government web resources and services.